Waarnemingen

Advertentie
Mijn weer
South Uist Range, Groot Brittannië (3023): temperatuur & dauwpunt: 08.12.2018 15:00:00 - 14.12.2018 15:00:00 (GMT)South Uist Range, Groot Brittannië (3023): temperatuur -20cm & temperatuur -100cm: 08.12.2018 15:00:00 - 14.12.2018 15:00:00 (GMT)South Uist Range, Groot Brittannië (3023): windsnelheid & windstoten: 08.12.2018 15:00:00 - 14.12.2018 15:00:00 (GMT)South Uist Range, Groot Brittannië (3023): windrichting: 08.12.2018 15:00:00 - 14.12.2018 15:00:00 (GMT)South Uist Range, Groot Brittannië (3023): luchtdruk: 08.12.2018 15:00:00 - 14.12.2018 15:00:00 (GMT)South Uist Range, Groot Brittannië (3023): zicht: 08.12.2018 15:00:00 - 14.12.2018 15:00:00 (GMT)South Uist Range, Groot Brittannië (3023): neerslag: 08.12.2018 15:00:00 - 14.12.2018 15:00:00 (GMT)
Datum & Tijd tt [°C] td [°C] tt -20cm [°C] tt -100cm [°C] ff [km/u] ff [kn] fx [km/u] fx [kn] dd ppp [hPa] vv [km] rr [mm]
14.12.2018 15:00:00 - - - - - - - - - - - -
14.12.2018 14:00:00 - - - - - - - - - - - -
14.12.2018 13:00:00 - - - - - - - - - - - -
14.12.2018 12:00:00 - - - - - - - - - - - -
14.12.2018 11:00:00 - - - - - - - - - - - -
14.12.2018 10:00:00 - - - - - - - - - - - -
14.12.2018 09:00:00 - - - - - - - - - - - -
14.12.2018 08:00:00 - - - - - - - - - - - -
14.12.2018 07:00:00 - - - - - - - - - - - -
14.12.2018 06:00:00 - - - - - - - - - - - -
14.12.2018 05:00:00 - - - - - - - - - - - -
14.12.2018 04:00:00 - - - - - - - - - - - -
14.12.2018 03:00:00 - - - - - - - - - - - -
14.12.2018 02:00:00 - - - - - - - - - - - -
14.12.2018 01:00:00 6,4 5,0 - - 46 25 70 38 ZZO 1014,4 4,8 0,2
14.12.2018 00:00:00 6,4 5,0 - - 44 24 67 36 ZZO 1014,0 3,7 0,0
13.12.2018 23:00:00 6,5 5,0 - - 52 28 70 38 Z 1013,8 6 0,2
13.12.2018 22:00:00 6,0 4,7 - - 50 27 76 41 Z 1013,8 3,3 0,4
13.12.2018 21:00:00 6,7 4,1 - - 52 28 85 46 Z 1013,4 9 0,0
13.12.2018 20:00:00 6,7 3,9 - - 57 31 87 47 Z 1013,0 9 0,0
13.12.2018 19:00:00 6,9 3,1 - - 59 32 87 47 ZZO 1012,3 12 0,0
13.12.2018 18:00:00 6,9 2,7 - - 61 33 81 44 ZZO 1011,5 14 0,0
13.12.2018 17:00:00 6,3 2,2 - - 50 27 80 43 ZZO 1011,1 21 0,0
13.12.2018 16:00:00 6,2 1,8 - - 57 31 83 45 ZZO 1011,0 16 0,0
13.12.2018 15:00:00 6,1 1,7 - - 61 33 85 46 ZZO 1010,5 21 0,0
13.12.2018 14:00:00 6,2 1,5 - - 55 30 80 43 ZZO 1010,6 16 0,0
13.12.2018 13:00:00 6,1 1,3 - - 61 33 87 47 ZZO 1010,4 24 0,0
13.12.2018 12:00:00 6,1 1,3 - - 61 33 83 45 ZZO 1010,3 27 0,0
13.12.2018 11:00:00 6,1 1,3 - - 55 30 89 48 ZZO 1010,3 22 0,0
13.12.2018 10:00:00 5,9 1,2 - - 59 32 83 45 ZZO 1009,7 23 0,0
13.12.2018 09:00:00 5,5 2,1 7,4 8,2 59 32 85 46 ZZO 1009,5 7 0,0
13.12.2018 08:00:00 5,6 0,8 - - 63 34 85 46 ZZO 1008,9 12 0,0
13.12.2018 07:00:00 5,9 0,7 - - 61 33 87 47 ZO 1008,2 18 0,0
13.12.2018 06:00:00 5,8 0,5 - - 50 27 81 44 ZZO 1008,3 27 0,0
13.12.2018 05:00:00 5,9 0,5 - - 65 35 87 47 ZO 1008,1 24 0,0
13.12.2018 04:00:00 6,1 1,6 - - 61 33 81 44 ZZO 1008,2 18 0,0
13.12.2018 03:00:00 6,7 2,1 - - 55 30 87 47 ZO 1008,6 28 0,0
13.12.2018 02:00:00 7,3 3,0 - - 52 28 89 48 ZO 1008,4 29 0,0
13.12.2018 01:00:00 7,7 3,7 - - 57 31 89 48 ZO 1008,2 30 0,0
13.12.2018 00:00:00 7,9 4,2 - - 63 34 83 45 ZO 1008,7 29 0,0
12.12.2018 23:00:00 8,1 4,7 - - 65 35 89 48 ZO 1008,7 20 0,0
12.12.2018 22:00:00 8,3 5,3 - - 55 30 83 45 ZO 1008,9 18 0,0
12.12.2018 21:00:00 8,7 5,3 - - 59 32 81 44 ZO 1008,9 20 0,0
12.12.2018 20:00:00 8,5 5,7 - - 52 28 76 41 ZO 1009,2 17 0,0
12.12.2018 19:00:00 8,5 6,3 - - 54 29 81 44 ZO 1009,2 10 0,0
12.12.2018 18:00:00 8,8 6,4 - - 55 30 76 41 ZO 1009,6 13 0,0
12.12.2018 17:00:00 8,7 6,7 - - 48 26 74 40 ZZO 1010,0 15 0,0
12.12.2018 16:00:00 8,8 7,1 - - 54 29 74 40 ZO 1010,1 14 0,0
12.12.2018 15:00:00 8,8 7,4 - - 48 26 68 37 ZZO 1010,4 5 0,0
12.12.2018 14:00:00 9,1 7,8 - - 52 28 70 38 ZZO 1010,9 16 0,2
12.12.2018 13:00:00 8,9 7,9 - - 46 25 63 34 ZZO 1011,5 6 0,4
12.12.2018 12:00:00 8,9 8,1 - - 42 23 57 31 ZZO 1012,1 6 3,4
12.12.2018 11:00:00 8,9 8,4 - - 16 9 - - ZZO 1012,7 8 0,6
12.12.2018 10:00:00 8,0 7,5 - - 9 5 - - OZO 1012,7 4,5 0,0
12.12.2018 09:00:00 7,5 7,0 7,2 8,2 8 4 - - ZZO 1012,8 35 0,0
12.12.2018 08:00:00 7,5 7,0 - - 11 6 - - Z 1012,7 30 0,0
12.12.2018 07:00:00 8,4 7,8 - - 13 7 - - Z 1012,7 21 1,0
12.12.2018 06:00:00 8,6 7,9 - - 16 9 50 27 Z 1012,3 2,8 0,8
12.12.2018 05:00:00 9,7 8,7 - - 35 19 52 28 Z 1012,1 11 0,6
12.12.2018 04:00:00 9,5 8,6 - - 35 19 59 32 Z 1012,5 8 0,8
12.12.2018 03:00:00 9,5 8,6 - - 41 22 61 33 ZZO 1012,3 3,5 0,8
12.12.2018 02:00:00 9,4 8,4 - - 44 24 67 36 ZZO 1012,3 2,9 0,4
12.12.2018 01:00:00 9,5 8,3 - - 52 28 72 39 ZZO 1012,2 5 0,2
12.12.2018 00:00:00 9,6 7,9 - - 55 30 72 39 ZZO 1012,3 16 0,0
11.12.2018 23:00:00 9,4 8,0 - - 50 27 72 39 ZZO 1012,4 28 0,0
11.12.2018 22:00:00 9,6 8,3 - - 48 26 67 36 ZZO 1012,3 20 0,0
11.12.2018 21:00:00 9,5 8,7 - - 39 21 65 35 ZZO 1012,7 6 1,0
11.12.2018 20:00:00 9,7 8,6 - - 46 25 61 33 ZZO 1012,9 5 0,8
11.12.2018 19:00:00 10,0 8,6 - - 50 27 76 41 ZZO 1013,1 2,7 0,0
11.12.2018 18:00:00 9,7 8,4 - - 48 26 68 37 ZZO 1012,9 12 0,4
11.12.2018 17:00:00 10,0 8,5 - - 48 26 74 40 ZZO 1013,2 8 0,0
11.12.2018 16:00:00 10,2 8,3 - - 54 29 76 41 ZZO 1012,7 35 0,0
11.12.2018 15:00:00 10,1 8,3 - - 54 29 74 40 ZZO 1013,0 20 0,0
11.12.2018 14:00:00 10,1 8,4 - - 48 26 72 39 ZZO 1013,8 14 0,0
11.12.2018 13:00:00 9,9 8,4 - - 54 29 68 37 ZZO 1014,2 9 0,2
11.12.2018 12:00:00 10,0 8,2 - - 54 29 74 40 Z 1014,5 16 0,0
11.12.2018 11:00:00 10,2 8,1 - - 50 27 72 39 ZZO 1014,5 40 0,0
11.12.2018 10:00:00 9,6 7,9 - - 52 28 72 39 ZZO 1014,5 16 0,0
11.12.2018 09:00:00 9,3 8,0 6,7 8,2 48 26 67 36 Z 1014,7 22 0,0
11.12.2018 08:00:00 9,4 8,1 - - 48 26 68 37 Z 1014,4 16 0,0
11.12.2018 07:00:00 9,6 8,1 - - 48 26 68 37 Z 1014,7 18 0,0
11.12.2018 06:00:00 9,7 8,5 - - 46 25 61 33 Z 1015,1 13 0,0
11.12.2018 05:00:00 9,4 8,4 - - 34 18 48 26 Z 1015,8 12 0,0
11.12.2018 04:00:00 9,1 8,3 - - 34 18 50 27 Z 1017,0 9 0,0
11.12.2018 03:00:00 9,2 8,5 - - 29 16 - - Z 1017,4 9 0,0
11.12.2018 02:00:00 9,1 8,4 - - 35 19 50 27 Z 1017,5 9 0,0
11.12.2018 01:00:00 8,9 8,1 - - 37 20 52 28 Z 1018,2 6 0,0
11.12.2018 00:00:00 8,7 7,6 - - 39 21 54 29 Z 1018,4 6 0,0
10.12.2018 23:00:00 8,3 7,2 - - 39 21 55 30 Z 1018,9 8 0,0
10.12.2018 22:00:00 8,2 6,8 - - 39 21 55 30 ZZO 1019,6 3,5 0,0
10.12.2018 21:00:00 8,1 6,1 - - 35 19 52 28 ZZO 1019,8 20 0,0
10.12.2018 20:00:00 8,1 5,6 - - 42 23 57 31 ZZO 1019,9 16 0,0
10.12.2018 19:00:00 8,1 5,7 - - 42 23 54 29 ZZO 1020,5 29 0,0
10.12.2018 18:00:00 7,8 5,1 - - 26 14 - - ZZO 1020,9 27 0,0
10.12.2018 17:00:00 7,3 5,3 - - 22 12 - - ZZO 1021,7 26 0,0
10.12.2018 16:00:00 6,5 5,1 - - 15 8 - - ZZO 1022,1 40 0,0
10.12.2018 15:00:00 7,0 5,3 - - 16 9 - - Z 1022,7 17 0,2
10.12.2018 14:00:00 7,8 5,5 - - 22 12 - - ZO 1023,0 28 0,0
10.12.2018 13:00:00 7,3 5,4 - - 16 9 - - ZZO 1023,7 26 0,0
10.12.2018 12:00:00 7,0 4,7 - - 15 8 - - OZO 1024,1 35 0,0
10.12.2018 11:00:00 6,5 4,2 - - 15 8 - - ZO 1024,0 30 0,0
10.12.2018 10:00:00 5,8 4,2 - - 13 7 - - ZO 1023,8 35 0,0
10.12.2018 09:00:00 5,4 3,9 6,7 8,2 13 7 - - OZO 1023,7 35 0,0
10.12.2018 08:00:00 3,2 2,1 - - 5 3 - - O 1023,6 30 0,0
10.12.2018 07:00:00 2,7 1,7 - - 4 2 - - ZO 1023,3 30 0,0
10.12.2018 06:00:00 2,9 1,9 - - 5 3 - - ZO 1023,3 35 0,0
10.12.2018 05:00:00 2,6 1,4 - - 5 3 - - OZO 1022,9 35 0,0
10.12.2018 04:00:00 2,7 1,2 - - 5 3 - - ZO 1022,5 45 0,0
10.12.2018 03:00:00 3,0 1,6 - - 5 3 - - O 1022,1 29 0,0
10.12.2018 02:00:00 3,4 1,7 - - 5 3 - - O 1021,7 19 0,0
10.12.2018 01:00:00 3,3 1,7 - - 5 3 - - O 1021,1 19 0,0
10.12.2018 00:00:00 3,9 2,4 - - 5 3 - - NO 1020,3 8 0,0
09.12.2018 23:00:00 5,2 2,7 - - 11 6 - - N 1019,8 30 0,2
09.12.2018 22:00:00 4,3 2,9 - - 8 4 - - O 1019,2 10 0,0
09.12.2018 21:00:00 4,1 2,7 - - 4 2 - - NNO 1018,7 16 0,0
09.12.2018 20:00:00 6,1 2,0 - - 15 8 - - NW 1017,8 9 0,0
09.12.2018 19:00:00 5,7 1,5 - - 16 9 - - NW 1017,0 25 0,0
09.12.2018 18:00:00 5,8 1,6 - - 16 9 - - NW 1016,2 11 0,0
09.12.2018 17:00:00 6,3 1,7 - - 18 10 - - NW 1015,2 19 0,0
09.12.2018 16:00:00 5,6 2,4 - - 16 9 - - NW 1014,4 18 0,0
09.12.2018 15:00:00 6,2 3,9 - - 11 6 - - WNW 1013,4 17 0,0
09.12.2018 14:00:00 4,8 3,0 - - 2 1 - - ONO 1012,7 40 0,0
09.12.2018 13:00:00 5,3 3,4 - - 13 7 - - NO 1011,8 35 0,0
09.12.2018 12:00:00 5,5 2,8 - - 16 9 - - N 1011,0 30 0,0
09.12.2018 11:00:00 5,8 3,3 - - 11 6 - - NNW 1010,1 30 0,0
09.12.2018 10:00:00 6,1 2,6 - - 15 8 - - NNW 1009,0 28 0,0
09.12.2018 09:00:00 5,9 3,0 7,0 8,2 13 7 - - NNW 1008,0 35 0,0
09.12.2018 08:00:00 5,1 3,0 - - 21 11 - - N 1006,4 21 0,0
09.12.2018 07:00:00 5,4 2,5 - - 16 9 - - N 1004,7 19 0,4
09.12.2018 06:00:00 5,6 2,9 - - 26 14 - - N 1003,2 11 0,0
09.12.2018 05:00:00 6,3 3,2 - - 18 10 - - NNW 1002,0 12 0,0
09.12.2018 04:00:00 4,9 3,2 - - 11 6 - - N 1000,3 20 0,0
09.12.2018 03:00:00 3,8 2,6 - - 16 9 - - N 998,7 19 0,0
09.12.2018 02:00:00 4,0 2,8 - - 16 9 - - N 996,9 16 0,0
09.12.2018 01:00:00 4,4 3,2 - - 15 8 - - N 995,2 17 0,0
09.12.2018 00:00:00 4,8 3,5 - - 15 8 - - N 993,5 27 0,0
08.12.2018 23:00:00 6,0 5,0 - - 16 9 - - N 992,2 26 0,0
08.12.2018 22:00:00 5,8 5,1 - - 15 8 - - NNO 991,1 27 0,2
08.12.2018 21:00:00 6,1 5,4 - - 15 8 - - NO 990,2 15 0,0
08.12.2018 20:00:00 5,1 4,4 - - 5 3 - - NNO 989,5 11 0,0
08.12.2018 19:00:00 4,1 3,1 - - 4 2 - - NNO 989,0 9 0,0
08.12.2018 18:00:00 4,3 3,1 - - 4 2 - - WNW 988,4 3,9 0,0
08.12.2018 17:00:00 3,6 2,3 - - 4 2 - - Z 988,2 12 0,0
08.12.2018 16:00:00 5,2 3,8 - - 4 2 - - N 988,0 15 0,0
08.12.2018 15:00:00 6,4 4,5 - - 5 3 - - N 987,9 25 0,0

tt = temperatuur
td = dauwpunt
tt -20cm = temperatuur -20cm
tt -100cm = temperatuur -100cm
ff = windsnelheid
fx = windstoten
dd = windrichting
ppp = luchtdruk
vv = zicht
rr = neerslag

Weerstations in de omgeving